| time (UTC) | temp C | wind direction | speed KPH | gust KPH | rain 1hr cm | rain 24hr cm | rain mn cm | humidity % | barometer mb |
| 20260504050713 | 8 | 196 | 1.6 | 4.8 | 0.00 | 0.15 | 0.15 | 60 | |
| 20260504050213 | 8 | 209 | 4.8 | 6.4 | 0.00 | 0.15 | 0.15 | 60 | |
| 20260504045712 | 8 | 336 | 8.0 | 8.0 | 0.00 | 0.15 | 0.15 | 60 | |
| 20260504045212 | 8 | 256 | 8.0 | 12.9 | 0.00 | 0.15 | 0.15 | 61 | |
| 20260504044711 | 8 | 185 | 6.4 | 14.5 | 0.00 | 0.15 | 0.15 | 60 | |
| 20260504044210 | 8 | 291 | 9.7 | 12.9 | 0.00 | 0.15 | 0.15 | 61 | |
| 20260504043709 | 8 | 287 | 9.7 | 11.3 | 0.00 | 0.15 | 0.15 | 61 | |
| 20260504043209 | 7 | 315 | 6.4 | 11.3 | 0.00 | 0.15 | 0.15 | 61 | |
| 20260504042708 | 7 | 256 | 1.6 | 9.7 | 0.00 | 0.15 | 0.15 | 62 | |
| 20260504042207 | 7 | 0 | 8.0 | 4.8 | 0.00 | 0.15 | 0.15 | 62 | |
| 20260504041707 | 7 | 285 | 14.5 | 17.7 | 0.00 | 0.15 | 0.15 | 62 | |
| 20260504041206 | 7 | 257 | 6.4 | 11.3 | 0.00 | 0.15 | 0.15 | 62 | |
| 20260504040705 | 7 | 265 | 8.0 | 6.4 | 0.00 | 0.15 | 0.15 | 63 | |
| 20260504040204 | 7 | 263 | 6.4 | 6.4 | 0.00 | 0.15 | 0.15 | 63 | |
| 20260504035704 | 7 | 270 | 6.4 | 16.1 | 0.00 | 0.15 | 0.15 | 63 | |
| 20260504035203 | 7 | 25 | 3.2 | 8.0 | 0.00 | 0.15 | 0.15 | 63 | |
| 20260504034703 | 7 | 240 | 8.0 | 12.9 | 0.00 | 0.15 | 0.15 | 62 | |
| 20260504034202 | 7 | 286 | 3.2 | 9.7 | 0.00 | 0.15 | 0.15 | 62 | |
| 20260504033701 | 7 | 145 | 6.4 | 11.3 | 0.00 | 0.15 | 0.15 | 61 | |
| 20260504033200 | 7 | 180 | 8.0 | 6.4 | 0.00 | 0.15 | 0.15 | 61 | |
| 20260504032700 | 7 | 219 | 4.8 | 12.9 | 0.00 | 0.15 | 0.15 | 62 | |
| 20260504032159 | 7 | 274 | 4.8 | 9.7 | 0.00 | 0.15 | 0.15 | 62 | |
| 20260504031659 | 7 | 324 | 8.0 | 11.3 | 0.00 | 0.15 | 0.15 | 62 | |
| 20260504031158 | 7 | 234 | 8.0 | 14.5 | 0.00 | 0.15 | 0.15 | 62 | |
| 20260504030657 | 7 | 135 | 4.8 | 4.8 | 0.00 | 0.15 | 0.15 | 63 | |
| 20260504030156 | 7 | 249 | 4.8 | 8.0 | 0.00 | 0.15 | 0.15 | 62 | |
| 20260504025656 | 7 | 289 | 8.0 | 8.0 | 0.00 | 0.15 | 0.15 | 62 | |
| 20260504025155 | 7 | 261 | 4.8 | 8.0 | 0.00 | 0.15 | 0.15 | 62 | |
| 20260504024654 | 7 | 54 | 4.8 | 14.5 | 0.00 | 0.15 | 0.15 | 62 | |
| 20260504024154 | 7 | 240 | 6.4 | 6.4 | 0.00 | 0.15 | 0.15 | 61 | |
| 20260504023653 | 7 | 256 | 6.4 | 9.7 | 0.00 | 0.15 | 0.15 | 61 | |
| 20260504023152 | 7 | 275 | 4.8 | 9.7 | 0.00 | 0.15 | 0.15 | 61 | |
| 20260504022652 | 7 | 304 | 9.7 | 11.3 | 0.00 | 0.15 | 0.15 | 60 | |
| 20260504022151 | 7 | 250 | 4.8 | 8.0 | 0.00 | 0.15 | 0.15 | 61 | |
| 20260504021651 | 7 | 245 | 4.8 | 6.4 | 0.00 | 0.15 | 0.15 | 60 | |
| 20260504021150 | 7 | 288 | 12.9 | 11.3 | 0.00 | 0.15 | 0.15 | 59 | |
| 20260504020649 | 7 | 256 | 8.0 | 8.0 | 0.15 | 0.15 | 0.15 | 59 | |
| 20260504020148 | 7 | 337 | 4.8 | 8.0 | 0.15 | 0.15 | 0.15 | 59 | |
| 20260504015648 | 7 | 272 | 3.2 | 4.8 | 0.15 | 0.15 | 0.15 | 59 | |
| 20260504015147 | 7 | 332 | 4.8 | 4.8 | 0.15 | 0.15 | 0.15 | 59 | |
| 20260504014646 | 7 | 229 | 8.0 | 11.3 | 0.15 | 0.15 | 0.15 | 59 | |
| 20260504014146 | 7 | 237 | 4.8 | 8.0 | 0.15 | 0.15 | 0.15 | 58 | |
| 20260504013645 | 7 | 314 | 4.8 | 3.2 | 0.15 | 0.15 | 0.15 | 59 | |
| 20260504013144 | 7 | 314 | 4.8 | 3.2 | 0.15 | 0.15 | 0.15 | 59 | |
| 20260504012644 | 7 | 314 | 4.8 | 3.2 | 0.15 | 0.15 | 0.15 | 59 | |
| 20260504012143 | 7 | 259 | 3.2 | 3.2 | 0.15 | 0.15 | 0.15 | 59 | |
| 20260504011642 | 7 | 258 | 4.8 | 6.4 | 0.15 | 0.15 | 0.15 | 58 | |
| 20260504011142 | 7 | 97 | 1.6 | 4.8 | 0.15 | 0.15 | 0.15 | 58 | |
| 20260504010641 | 5 | 257 | 4.8 | 11.3 | 0.00 | 0.00 | 0.00 | 86 | |
| 20260504010140 | 5 | 257 | 4.8 | 11.3 | 0.00 | 0.00 | 0.00 | 86 | |
| 20260504005639 | 5 | 257 | 4.8 | 11.3 | 0.00 | 0.00 | 0.00 | 86 | |
| 20260504005138 | 5 | 257 | 4.8 | 11.3 | 0.00 | 0.00 | 0.00 | 86 | |
| 20260504004638 | 5 | 257 | 4.8 | 11.3 | 0.00 | 0.00 | 0.00 | 86 | |
| 20260504004137 | 5 | 257 | 4.8 | 11.3 | 0.00 | 0.00 | 0.00 | 86 | |
| 20260504003636 | 5 | 257 | 4.8 | 11.3 | 0.00 | 0.00 | 0.00 | 86 | |
| 20260504003136 | 5 | 257 | 4.8 | 11.3 | 0.00 | 0.00 | 0.00 | 86 | |
| 20260504002635 | 5 | 257 | 4.8 | 11.3 | 0.00 | 0.00 | 0.00 | 86 | |
| 20260504002134 | 5 | 257 | 4.8 | 11.3 | 0.00 | 0.00 | 0.00 | 86 | |
| 20260504001634 | 5 | 257 | 4.8 | 11.3 | 0.00 | 0.00 | 0.00 | 86 | |
| 20260504001133 | 5 | 257 | 4.8 | 11.3 | 0.00 | 0.00 | 0.00 | 86 | |
| 20260504000632 | 5 | 257 | 4.8 | 11.3 | 0.00 | 0.00 | 0.00 | 86 | |
| 20260504000132 | 5 | 257 | 4.8 | 11.3 | 0.00 | 0.00 | 0.00 | 86 | |
| 20260503235631 | 5 | 257 | 4.8 | 11.3 | 0.00 | 0.00 | 0.00 | 86 | |
| 20260503235130 | 5 | 257 | 4.8 | 11.3 | 0.00 | 0.00 | 0.00 | 86 | |
| 20260503234629 | 5 | 257 | 4.8 | 11.3 | 0.00 | 0.00 | 0.00 | 86 | |
| 20260503234128 | 5 | 257 | 4.8 | 11.3 | 0.00 | 0.00 | 0.00 | 86 | |
| 20260503233628 | 5 | 257 | 4.8 | 11.3 | 0.00 | 0.00 | 0.00 | 86 | |
| 20260503233127 | 5 | 257 | 4.8 | 11.3 | 0.00 | 0.00 | 0.00 | 86 | |
| 20260503232626 | 5 | 257 | 4.8 | 11.3 | 0.00 | 0.00 | 0.00 | 86 | |
| 20260503232126 | 5 | 257 | 4.8 | 11.3 | 0.00 | 0.00 | 0.00 | 86 | |
| 20260503231625 | 5 | 257 | 4.8 | 11.3 | 0.00 | 0.00 | 0.00 | 86 | |
| 20260503231124 | 5 | 257 | 4.8 | 11.3 | 0.00 | 0.00 | 0.00 | 86 | |
| 20260503230623 | 5 | 257 | 4.8 | 11.3 | 0.00 | 0.00 | 0.00 | 86 | |
| 20260503230122 | 5 | 257 | 4.8 | 11.3 | 0.00 | 0.00 | 0.00 | 86 | |
| 20260503225622 | 5 | 257 | 4.8 | 11.3 | 0.00 | 0.00 | 0.00 | 86 | |
| 20260503225121 | 5 | 257 | 4.8 | 11.3 | 0.00 | 0.00 | 0.00 | 86 | |
| 20260503224620 | 5 | 257 | 4.8 | 11.3 | 0.00 | 0.00 | 0.00 | 86 | |
| 20260503224114 | 5 | 257 | 4.8 | 11.3 | 0.00 | 0.00 | 0.00 | 86 | |
| 20260503223614 | 5 | 257 | 4.8 | 11.3 | 0.00 | 0.00 | 0.00 | 86 | |
| 20260503223113 | 5 | 257 | 4.8 | 11.3 | 0.00 | 0.00 | 0.00 | 86 | |
| 20260503222612 | 5 | 257 | 4.8 | 11.3 | 0.00 | 0.00 | 0.00 | 86 | |
| 20260503222112 | 5 | 257 | 4.8 | 11.3 | 0.00 | 0.00 | 0.00 | 86 | |
| 20260503221611 | 5 | 257 | 4.8 | 11.3 | 0.00 | 0.00 | 0.00 | 86 | |
| 20260503221110 | 5 | 257 | 4.8 | 11.3 | 0.00 | 0.00 | 0.00 | 86 | |
| 20260503220609 | 5 | 257 | 4.8 | 11.3 | 0.00 | 0.00 | 0.00 | 86 | |
| 20260503220109 | 5 | 257 | 4.8 | 11.3 | 0.00 | 0.00 | 0.00 | 86 | |
| 20260503215608 | 5 | 257 | 4.8 | 11.3 | 0.00 | 0.00 | 0.00 | 86 | |
| 20260503215107 | 5 | 257 | 4.8 | 11.3 | 0.00 | 0.00 | 0.00 | 86 | |
| 20260503214606 | 5 | 257 | 4.8 | 11.3 | 0.00 | 0.00 | 0.00 | 86 | |
| 20260503214106 | 5 | 257 | 4.8 | 11.3 | 0.00 | 0.00 | 0.00 | 86 | |
| 20260503213605 | 5 | 257 | 4.8 | 11.3 | 0.00 | 0.00 | 0.00 | 86 | |
| 20260503213104 | 5 | 257 | 4.8 | 11.3 | 0.00 | 0.00 | 0.00 | 86 | |
| 20260503212604 | 5 | 257 | 4.8 | 11.3 | 0.00 | 0.00 | 0.00 | 86 | |
| 20260503212102 | 5 | 257 | 4.8 | 11.3 | 0.00 | 0.00 | 0.00 | 86 | |
| 20260503211602 | 5 | 257 | 4.8 | 11.3 | 0.00 | 0.00 | 0.00 | 86 | |
| 20260503211101 | 5 | 257 | 4.8 | 11.3 | 0.00 | 0.00 | 0.00 | 86 | |
| 20260503210600 | 5 | 257 | 4.8 | 11.3 | 0.00 | 0.00 | 0.00 | 86 | |
| 20260503210059 | 5 | 257 | 4.8 | 11.3 | 0.00 | 0.00 | 0.00 | 86 | |
| 20260503205559 | 5 | 257 | 4.8 | 11.3 | 0.00 | 0.00 | 0.00 | 86 | |
| 20260503205058 | 5 | 257 | 4.8 | 11.3 | 0.00 | 0.00 | 0.00 | 86 | |
| 20260503204557 | 5 | 257 | 4.8 | 11.3 | 0.00 | 0.00 | 0.00 | 86 | |
| 20260503204057 | 5 | 257 | 4.8 | 11.3 | 0.00 | 0.00 | 0.00 | 86 | |
| 20260503203556 | 5 | 257 | 4.8 | 11.3 | 0.00 | 0.00 | 0.00 | 86 | |
| 20260503203055 | 5 | 257 | 4.8 | 11.3 | 0.00 | 0.00 | 0.00 | 86 | |
| 20260503202554 | 5 | 257 | 4.8 | 11.3 | 0.00 | 0.00 | 0.00 | 86 | |
| 20260503202054 | 5 | 257 | 4.8 | 11.3 | 0.00 | 0.00 | 0.00 | 86 | |
| 20260503201553 | 5 | 257 | 4.8 | 11.3 | 0.00 | 0.00 | 0.00 | 86 | |
| 20260503201052 | 5 | 257 | 4.8 | 11.3 | 0.00 | 0.00 | 0.00 | 86 | |
| 20260503200552 | 5 | 257 | 4.8 | 11.3 | 0.00 | 0.00 | 0.00 | 86 | |
| 20260503200051 | 5 | 257 | 4.8 | 11.3 | 0.00 | 0.00 | 0.00 | 86 | |
| 20260503195550 | 5 | 257 | 4.8 | 11.3 | 0.00 | 0.00 | 0.00 | 86 | |
| 20260503195050 | 5 | 257 | 4.8 | 11.3 | 0.00 | 0.00 | 0.00 | 86 | |
| 20260503194549 | 5 | 257 | 4.8 | 11.3 | 0.00 | 0.00 | 0.00 | 86 | |
| 20260503194048 | 5 | 257 | 4.8 | 11.3 | 0.00 | 0.00 | 0.00 | 86 | |
| 20260503193547 | 5 | 257 | 4.8 | 11.3 | 0.00 | 0.00 | 0.00 | 86 | |
| 20260503193047 | 5 | 257 | 4.8 | 11.3 | 0.00 | 0.00 | 0.00 | 86 | |
| 20260503192546 | 5 | 257 | 4.8 | 11.3 | 0.00 | 0.00 | 0.00 | 86 | |
| 20260503192045 | 5 | 257 | 4.8 | 11.3 | 0.00 | 0.00 | 0.00 | 86 | |
| 20260503191545 | 5 | 257 | 4.8 | 11.3 | 0.00 | 0.00 | 0.00 | 86 | |
| 20260503191044 | 5 | 257 | 4.8 | 11.3 | 0.00 | 0.00 | 0.00 | 86 | |
| 20260503190544 | 5 | 257 | 4.8 | 11.3 | 0.00 | 0.00 | 0.00 | 86 | |
| 20260503190043 | 5 | 257 | 4.8 | 11.3 | 0.00 | 0.00 | 0.00 | 86 | |
| 20260503185542 | 5 | 257 | 4.8 | 11.3 | 0.00 | 0.00 | 0.00 | 86 | |
| 20260503185041 | 5 | 257 | 4.8 | 11.3 | 0.00 | 0.00 | 0.00 | 86 | |
| 20260503184540 | 5 | 257 | 4.8 | 11.3 | 0.00 | 0.00 | 0.00 | 86 | |
| 20260503184040 | 5 | 257 | 4.8 | 11.3 | 0.00 | 0.00 | 0.00 | 86 | |
| 20260503183539 | 5 | 257 | 4.8 | 11.3 | 0.00 | 0.00 | 0.00 | 86 | |
| 20260503183038 | 5 | 257 | 4.8 | 11.3 | 0.00 | 0.00 | 0.00 | 86 | |
| 20260503182536 | 5 | 257 | 4.8 | 11.3 | 0.00 | 0.00 | 0.00 | 86 | |
| 20260503182036 | 5 | 257 | 4.8 | 11.3 | 0.00 | 0.00 | 0.00 | 86 | |
| 20260503181535 | 5 | 257 | 4.8 | 11.3 | 0.00 | 0.00 | 0.00 | 86 | |
| 20260503181034 | 5 | 257 | 4.8 | 11.3 | 0.00 | 0.00 | 0.00 | 86 | |
| 20260503180533 | 5 | 257 | 4.8 | 11.3 | 0.00 | 0.00 | 0.00 | 86 | |
| 20260503180033 | 5 | 257 | 4.8 | 11.3 | 0.00 | 0.00 | 0.00 | 86 | |
| 20260503175532 | 5 | 257 | 4.8 | 11.3 | 0.00 | 0.00 | 0.00 | 86 | |
| 20260503175032 | 5 | 257 | 4.8 | 11.3 | 0.00 | 0.00 | 0.00 | 86 | |
| 20260503174531 | 5 | 257 | 4.8 | 11.3 | 0.00 | 0.00 | 0.00 | 86 | |
| 20260503174030 | 5 | 257 | 4.8 | 11.3 | 0.00 | 0.00 | 0.00 | 86 | |
| 20260503173529 | 5 | 257 | 4.8 | 11.3 | 0.00 | 0.00 | 0.00 | 86 | |
| 20260503173029 | 5 | 257 | 4.8 | 11.3 | 0.00 | 0.00 | 0.00 | 86 | |
| 20260503172528 | 5 | 257 | 4.8 | 11.3 | 0.00 | 0.00 | 0.00 | 86 | |
| 20260503172027 | 5 | 257 | 4.8 | 11.3 | 0.00 | 0.00 | 0.00 | 86 | |
| 20260503171527 | 5 | 257 | 4.8 | 11.3 | 0.00 | 0.00 | 0.00 | 86 | |
| 20260503171026 | 5 | 257 | 4.8 | 11.3 | 0.00 | 0.00 | 0.00 | 86 | |
| 20260503170525 | 5 | 257 | 4.8 | 11.3 | 0.00 | 0.00 | 0.00 | 86 | |
| 20260503151004 | 5 | 257 | 4.8 | 11.3 | 0.00 | 0.00 | 0.00 | 86 | |
| 20260503150503 | 5 | 257 | 4.8 | 11.3 | 0.00 | 0.00 | 0.00 | 86 | |
| 20260503130942 | 5 | 257 | 4.8 | 11.3 | 0.00 | 0.00 | 0.00 | 86 | |
| 20260503130441 | 5 | 257 | 4.8 | 11.3 | 0.00 | 0.00 | 0.00 | 86 | |
| 20260503110418 | 5 | 257 | 4.8 | 11.3 | 0.00 | 0.00 | 0.00 | 86 | |
| 20260503090353 | 5 | 257 | 4.8 | 11.3 | 0.00 | 0.00 | 0.00 | 86 | |
| 20260503081346 | 5 | 257 | 4.8 | 11.3 | 0.00 | 0.00 | 0.00 | 86 | |
| 20260503080845 | 5 | 257 | 4.8 | 11.3 | 0.00 | 0.00 | 0.00 | 86 | |
| 20260503080344 | 5 | 257 | 4.8 | 11.3 | 0.00 | 0.00 | 0.00 | 86 | |
| 20260503072840 | 5 | 257 | 4.8 | 11.3 | 0.00 | 0.00 | 0.00 | 86 | |
| 20260503072339 | 5 | 257 | 4.8 | 11.3 | 0.00 | 0.00 | 0.00 | 86 | |
| 20260503071838 | 5 | 257 | 4.8 | 11.3 | 0.00 | 0.00 | 0.00 | 86 | |
| 20260503071337 | 5 | 257 | 4.8 | 11.3 | 0.00 | 0.00 | 0.00 | 86 | |
| 20260503070837 | 5 | 257 | 4.8 | 11.3 | 0.00 | 0.00 | 0.00 | 86 | |
| 20260503070336 | 5 | 257 | 4.8 | 11.3 | 0.00 | 0.00 | 0.00 | 86 | |
| 20260503060327 | 5 | 257 | 4.8 | 11.3 | 0.00 | 0.00 | 0.00 | 86 | |
| 20260503054825 | 5 | 257 | 4.8 | 11.3 | 0.00 | 0.00 | 0.00 | 86 | |
| 20260503054325 | 5 | 257 | 4.8 | 11.3 | 0.00 | 0.00 | 0.00 | 86 | |
| 20260503053824 | 5 | 257 | 4.8 | 11.3 | 0.00 | 0.00 | 0.00 | 86 | |
| 20260503053323 | 5 | 257 | 4.8 | 11.3 | 0.00 | 0.00 | 0.00 | 86 | |
| 20260503052822 | 5 | 257 | 4.8 | 11.3 | 0.00 | 0.00 | 0.00 | 86 | |
| 20260503052322 | 5 | 257 | 4.8 | 11.3 | 0.00 | 0.00 | 0.00 | 86 | |
| 20260503051821 | 5 | 257 | 4.8 | 11.3 | 0.00 | 0.00 | 0.00 | 86 |